| State | Illinois | Latest | Unknown (51100 cfs) | |
| River | Illinois River | Rating | Observed | Estimated |
| Updated | 2026-05-05 8:00 (25 minutes ago) | Flood - The river is flooding. Obstacles can be treacherous or deadly. The river should be avoided at this stage for casual trips and definitely for the inexperienced. Trips should be attempted only with protective gear and equipment.Flood | (none) | (none) |
| Discharge | 51100 cfs (median: 34500 cfs) | High - The river is high and potentially dangerous, especially for the young and / or inexperienced. Normal stream obstacles are sometimes difficult to navigate. Extended distances can be attempted, but canoe travel may not be advisable.High | (none) | (none) |
| Height | 14.35 feet | Good - Conditions are ideal for a canoe or kayak. Boats typically will drag on fewer than one-quarter of riffles, if at all, and portages are unnecessary or rare. Normal float lengths can be attempted without a problem.Good | (none) | (none) |
| Trend | Rising (falling over 24 hours) | Low - River is low but can still be floated. Some riffles are okay but most come with significant dragging and might need a portage. Float lengths should be reduced to accommodate low flow, dragging, and portages.Low | (none) | (none) |
| USGS | USGS Site ( Duck Duck Go Maps) | Poor - River is too low to float comfortably. Most or all riffles will drag or must be portaged and some obstacles (such as slick shelf rock) cause undue problems. Avoid the river at this stage for casual paddling trips.Poor | (none) | (none) |
| Date | Start | End | Distance | Condition | Discharge | Height | Fishing | Details |
|---|
A total of 0 rows are displayed.
BLG - Bluegill
CCF - Channel Catfish
CP - Chain Pickerel
FWD - Freshwater Drum
GSF - Green Sunfish
KSB - Kentucky Spotted Bass
LMB - Largemouth Bass
LSF - Longear Sunfish
RB - Rock Bass / Goggle Eye
RSF - Redear Sunfish
RT - Rainbow Trout
SMB - Smallmouth Bass
WB - White Bass
WF - Whitefish
WL - WalleyeThe classic River Trips application is still available for use. It is updated with the new system using a data retrofit. It is no longer maintained. The original River Trips application is no longer updated (as of 1 Dec 2016) but can be checked for errors or for the condition of the data before it was converted to the new system.
| Observation | Height | Discharge | Maximum Discharge | Minimum Discharge | Mean Discharge | P05 | P10 | P20 | P25 | P50 (Median) | P75 | P80 | P90 | P95 |
|---|---|---|---|---|---|---|---|---|---|---|---|---|---|---|
| 2026-05-05 08:00 | 14.35 | 51100 | 98600 (1973) | 10400 (1971) | 39600 | 13000 | 15100 | 19600 | 21800 | 34500 | 51500 | 57100 | 74000 | 83300 |
| 2026-05-05 07:30 | 14.36 | 51000 | 98600 (1973) | 10400 (1971) | 39600 | 13000 | 15100 | 19600 | 21800 | 34500 | 51500 | 57100 | 74000 | 83300 |
| 2026-05-05 07:00 | 14.37 | 51400 | 98600 (1973) | 10400 (1971) | 39600 | 13000 | 15100 | 19600 | 21800 | 34500 | 51500 | 57100 | 74000 | 83300 |
| 2026-05-05 06:30 | 14.34 | 51500 | 98600 (1973) | 10400 (1971) | 39600 | 13000 | 15100 | 19600 | 21800 | 34500 | 51500 | 57100 | 74000 | 83300 |
| 2026-05-05 06:00 | 14.36 | 51600 | 98600 (1973) | 10400 (1971) | 39600 | 13000 | 15100 | 19600 | 21800 | 34500 | 51500 | 57100 | 74000 | 83300 |
| 2026-05-05 05:30 | 14.38 | 51700 | 98600 (1973) | 10400 (1971) | 39600 | 13000 | 15100 | 19600 | 21800 | 34500 | 51500 | 57100 | 74000 | 83300 |
| 2026-05-05 05:00 | 14.41 | 51400 | 98600 (1973) | 10400 (1971) | 39600 | 13000 | 15100 | 19600 | 21800 | 34500 | 51500 | 57100 | 74000 | 83300 |
| 2026-05-05 04:30 | 14.40 | 51500 | 98600 (1973) | 10400 (1971) | 39600 | 13000 | 15100 | 19600 | 21800 | 34500 | 51500 | 57100 | 74000 | 83300 |
| 2026-05-05 04:00 | 14.42 | 51600 | 98600 (1973) | 10400 (1971) | 39600 | 13000 | 15100 | 19600 | 21800 | 34500 | 51500 | 57100 | 74000 | 83300 |
| 2026-05-05 03:30 | 14.41 | 51700 | 98600 (1973) | 10400 (1971) | 39600 | 13000 | 15100 | 19600 | 21800 | 34500 | 51500 | 57100 | 74000 | 83300 |
| 2026-05-05 03:00 | 14.45 | 51300 | 98600 (1973) | 10400 (1971) | 39600 | 13000 | 15100 | 19600 | 21800 | 34500 | 51500 | 57100 | 74000 | 83300 |
| 2026-05-05 02:30 | 14.44 | 51500 | 98600 (1973) | 10400 (1971) | 39600 | 13000 | 15100 | 19600 | 21800 | 34500 | 51500 | 57100 | 74000 | 83300 |
| 2026-05-05 02:00 | 14.45 | 51600 | 98600 (1973) | 10400 (1971) | 39600 | 13000 | 15100 | 19600 | 21800 | 34500 | 51500 | 57100 | 74000 | 83300 |
| 2026-05-05 01:30 | 14.48 | 51300 | 98600 (1973) | 10400 (1971) | 39600 | 13000 | 15100 | 19600 | 21800 | 34500 | 51500 | 57100 | 74000 | 83300 |
| 2026-05-05 01:00 | 14.48 | 51700 | 98600 (1973) | 10400 (1971) | 39600 | 13000 | 15100 | 19600 | 21800 | 34500 | 51500 | 57100 | 74000 | 83300 |
| 2026-05-05 00:30 | 14.48 | 51700 | 98600 (1973) | 10400 (1971) | 39600 | 13000 | 15100 | 19600 | 21800 | 34500 | 51500 | 57100 | 74000 | 83300 |
| 2026-05-05 00:00 | 14.50 | 51400 | 98600 (1973) | 10400 (1971) | 39600 | 13000 | 15100 | 19600 | 21800 | 34500 | 51500 | 57100 | 74000 | 83300 |
| 2026-05-04 23:30 | 14.53 | 98600 (1973) | 10400 (1971) | 39600 | 13000 | 15100 | 19600 | 21800 | 34500 | 51500 | 57100 | 74000 | 83300 | |
| 2026-05-04 23:00 | 14.48 | 98600 (1973) | 10400 (1971) | 39600 | 13000 | 15100 | 19600 | 21800 | 34500 | 51500 | 57100 | 74000 | 83300 | |
| 2026-05-04 22:30 | 14.52 | 51500 | 100000 (1973) | 10300 (1971) | 39100 | 13500 | 14500 | 18900 | 20100 | 34300 | 52300 | 57500 | 72600 | 81200 |
| 2026-05-04 22:00 | 14.51 | 51700 | 100000 (1973) | 10300 (1971) | 39100 | 13500 | 14500 | 18900 | 20100 | 34300 | 52300 | 57500 | 72600 | 81200 |
| 2026-05-04 21:30 | 14.53 | 51700 | 100000 (1973) | 10300 (1971) | 39100 | 13500 | 14500 | 18900 | 20100 | 34300 | 52300 | 57500 | 72600 | 81200 |
| 2026-05-04 21:00 | 14.55 | 51600 | 100000 (1973) | 10300 (1971) | 39100 | 13500 | 14500 | 18900 | 20100 | 34300 | 52300 | 57500 | 72600 | 81200 |
| 2026-05-04 20:30 | 14.55 | 51800 | 100000 (1973) | 10300 (1971) | 39100 | 13500 | 14500 | 18900 | 20100 | 34300 | 52300 | 57500 | 72600 | 81200 |
| 2026-05-04 20:00 | 14.56 | 51700 | 100000 (1973) | 10300 (1971) | 39100 | 13500 | 14500 | 18900 | 20100 | 34300 | 52300 | 57500 | 72600 | 81200 |
| 2026-05-04 19:30 | 14.55 | 51900 | 100000 (1973) | 10300 (1971) | 39100 | 13500 | 14500 | 18900 | 20100 | 34300 | 52300 | 57500 | 72600 | 81200 |
| 2026-05-04 19:00 | 14.56 | 51800 | 100000 (1973) | 10300 (1971) | 39100 | 13500 | 14500 | 18900 | 20100 | 34300 | 52300 | 57500 | 72600 | 81200 |
| 2026-05-04 18:30 | 14.59 | 51700 | 100000 (1973) | 10300 (1971) | 39100 | 13500 | 14500 | 18900 | 20100 | 34300 | 52300 | 57500 | 72600 | 81200 |
| 2026-05-04 18:00 | 14.61 | 51600 | 100000 (1973) | 10300 (1971) | 39100 | 13500 | 14500 | 18900 | 20100 | 34300 | 52300 | 57500 | 72600 | 81200 |
| 2026-05-04 17:30 | 14.60 | 52100 | 100000 (1973) | 10300 (1971) | 39100 | 13500 | 14500 | 18900 | 20100 | 34300 | 52300 | 57500 | 72600 | 81200 |
| 2026-05-04 17:00 | 14.61 | 52000 | 100000 (1973) | 10300 (1971) | 39100 | 13500 | 14500 | 18900 | 20100 | 34300 | 52300 | 57500 | 72600 | 81200 |
| 2026-05-04 16:30 | 14.61 | 51900 | 100000 (1973) | 10300 (1971) | 39100 | 13500 | 14500 | 18900 | 20100 | 34300 | 52300 | 57500 | 72600 | 81200 |
| 2026-05-04 16:00 | 14.61 | 52200 | 100000 (1973) | 10300 (1971) | 39100 | 13500 | 14500 | 18900 | 20100 | 34300 | 52300 | 57500 | 72600 | 81200 |
| 2026-05-04 15:30 | 14.64 | 51900 | 100000 (1973) | 10300 (1971) | 39100 | 13500 | 14500 | 18900 | 20100 | 34300 | 52300 | 57500 | 72600 | 81200 |
| 2026-05-04 15:00 | 14.65 | 52100 | 100000 (1973) | 10300 (1971) | 39100 | 13500 | 14500 | 18900 | 20100 | 34300 | 52300 | 57500 | 72600 | 81200 |
| 2026-05-04 14:30 | 14.64 | 52000 | 100000 (1973) | 10300 (1971) | 39100 | 13500 | 14500 | 18900 | 20100 | 34300 | 52300 | 57500 | 72600 | 81200 |
| 2026-05-04 14:00 | 14.64 | 52300 | 100000 (1973) | 10300 (1971) | 39100 | 13500 | 14500 | 18900 | 20100 | 34300 | 52300 | 57500 | 72600 | 81200 |
| 2026-05-04 13:30 | 14.65 | 52200 | 100000 (1973) | 10300 (1971) | 39100 | 13500 | 14500 | 18900 | 20100 | 34300 | 52300 | 57500 | 72600 | 81200 |
| 2026-05-04 13:00 | 14.69 | 51800 | 100000 (1973) | 10300 (1971) | 39100 | 13500 | 14500 | 18900 | 20100 | 34300 | 52300 | 57500 | 72600 | 81200 |
| 2026-05-04 12:30 | 14.71 | 51900 | 100000 (1973) | 10300 (1971) | 39100 | 13500 | 14500 | 18900 | 20100 | 34300 | 52300 | 57500 | 72600 | 81200 |
| 2026-05-04 12:00 | 14.73 | 51800 | 100000 (1973) | 10300 (1971) | 39100 | 13500 | 14500 | 18900 | 20100 | 34300 | 52300 | 57500 | 72600 | 81200 |
| 2026-05-04 11:30 | 14.73 | 51700 | 100000 (1973) | 10300 (1971) | 39100 | 13500 | 14500 | 18900 | 20100 | 34300 | 52300 | 57500 | 72600 | 81200 |
| 2026-05-04 11:00 | 14.75 | 51800 | 100000 (1973) | 10300 (1971) | 39100 | 13500 | 14500 | 18900 | 20100 | 34300 | 52300 | 57500 | 72600 | 81200 |
| 2026-05-04 10:30 | 14.76 | 51700 | 100000 (1973) | 10300 (1971) | 39100 | 13500 | 14500 | 18900 | 20100 | 34300 | 52300 | 57500 | 72600 | 81200 |
| 2026-05-04 10:00 | 14.75 | 51900 | 100000 (1973) | 10300 (1971) | 39100 | 13500 | 14500 | 18900 | 20100 | 34300 | 52300 | 57500 | 72600 | 81200 |
| 2026-05-04 09:30 | 14.77 | 51900 | 100000 (1973) | 10300 (1971) | 39100 | 13500 | 14500 | 18900 | 20100 | 34300 | 52300 | 57500 | 72600 | 81200 |
| 2026-05-04 09:00 | 14.77 | 52200 | 100000 (1973) | 10300 (1971) | 39100 | 13500 | 14500 | 18900 | 20100 | 34300 | 52300 | 57500 | 72600 | 81200 |
| 2026-05-04 08:30 | 14.78 | 51900 | 100000 (1973) | 10300 (1971) | 39100 | 13500 | 14500 | 18900 | 20100 | 34300 | 52300 | 57500 | 72600 | 81200 |
| 2026-05-04 08:00 | 14.77 | 52500 | 100000 (1973) | 10300 (1971) | 39100 | 13500 | 14500 | 18900 | 20100 | 34300 | 52300 | 57500 | 72600 | 81200 |
| 2026-05-04 07:30 | 14.75 | 52500 | 100000 (1973) | 10300 (1971) | 39100 | 13500 | 14500 | 18900 | 20100 | 34300 | 52300 | 57500 | 72600 | 81200 |
| 2026-05-04 07:00 | 14.77 | 52200 | 100000 (1973) | 10300 (1971) | 39100 | 13500 | 14500 | 18900 | 20100 | 34300 | 52300 | 57500 | 72600 | 81200 |
| 2026-05-04 06:30 | 14.79 | 52100 | 100000 (1973) | 10300 (1971) | 39100 | 13500 | 14500 | 18900 | 20100 | 34300 | 52300 | 57500 | 72600 | 81200 |
| 2026-05-04 06:00 | 14.80 | 52100 | 100000 (1973) | 10300 (1971) | 39100 | 13500 | 14500 | 18900 | 20100 | 34300 | 52300 | 57500 | 72600 | 81200 |
| 2026-05-04 05:30 | 14.79 | 52300 | 100000 (1973) | 10300 (1971) | 39100 | 13500 | 14500 | 18900 | 20100 | 34300 | 52300 | 57500 | 72600 | 81200 |
| 2026-05-04 05:00 | 14.83 | 51800 | 100000 (1973) | 10300 (1971) | 39100 | 13500 | 14500 | 18900 | 20100 | 34300 | 52300 | 57500 | 72600 | 81200 |
| 2026-05-04 04:30 | 14.82 | 52100 | 100000 (1973) | 10300 (1971) | 39100 | 13500 | 14500 | 18900 | 20100 | 34300 | 52300 | 57500 | 72600 | 81200 |
| 2026-05-04 04:00 | 14.82 | 52200 | 100000 (1973) | 10300 (1971) | 39100 | 13500 | 14500 | 18900 | 20100 | 34300 | 52300 | 57500 | 72600 | 81200 |
| 2026-05-04 03:30 | 14.83 | 52300 | 100000 (1973) | 10300 (1971) | 39100 | 13500 | 14500 | 18900 | 20100 | 34300 | 52300 | 57500 | 72600 | 81200 |
| 2026-05-04 03:00 | 14.86 | 52000 | 100000 (1973) | 10300 (1971) | 39100 | 13500 | 14500 | 18900 | 20100 | 34300 | 52300 | 57500 | 72600 | 81200 |
| 2026-05-04 02:30 | 14.86 | 52000 | 100000 (1973) | 10300 (1971) | 39100 | 13500 | 14500 | 18900 | 20100 | 34300 | 52300 | 57500 | 72600 | 81200 |
| 2026-05-04 02:00 | 14.87 | 52200 | 100000 (1973) | 10300 (1971) | 39100 | 13500 | 14500 | 18900 | 20100 | 34300 | 52300 | 57500 | 72600 | 81200 |
| 2026-05-04 01:30 | 14.87 | 52200 | 100000 (1973) | 10300 (1971) | 39100 | 13500 | 14500 | 18900 | 20100 | 34300 | 52300 | 57500 | 72600 | 81200 |
| 2026-05-04 01:00 | 14.89 | 52100 | 100000 (1973) | 10300 (1971) | 39100 | 13500 | 14500 | 18900 | 20100 | 34300 | 52300 | 57500 | 72600 | 81200 |
| 2026-05-04 00:30 | 14.90 | 52100 | 100000 (1973) | 10300 (1971) | 39100 | 13500 | 14500 | 18900 | 20100 | 34300 | 52300 | 57500 | 72600 | 81200 |
| 2026-05-04 00:00 | 14.89 | 52400 | 100000 (1973) | 10300 (1971) | 39100 | 13500 | 14500 | 18900 | 20100 | 34300 | 52300 | 57500 | 72600 | 81200 |
| 2026-05-03 23:30 | 14.90 | 52100 | 100000 (1973) | 10300 (1971) | 39100 | 13500 | 14500 | 18900 | 20100 | 34300 | 52300 | 57500 | 72600 | 81200 |
| 2026-05-03 23:00 | 14.91 | 52300 | 100000 (1973) | 10300 (1971) | 39100 | 13500 | 14500 | 18900 | 20100 | 34300 | 52300 | 57500 | 72600 | 81200 |
| 2026-05-03 22:30 | 14.93 | 52100 | 101000 (1973) | 10200 (1971) | 39100 | 13700 | 14700 | 18800 | 20400 | 35100 | 52900 | 57500 | 71400 | 79700 |
| 2026-05-03 22:00 | 14.92 | 52400 | 101000 (1973) | 10200 (1971) | 39100 | 13700 | 14700 | 18800 | 20400 | 35100 | 52900 | 57500 | 71400 | 79700 |
| 2026-05-03 21:30 | 14.94 | 52200 | 101000 (1973) | 10200 (1971) | 39100 | 13700 | 14700 | 18800 | 20400 | 35100 | 52900 | 57500 | 71400 | 79700 |
| 2026-05-03 21:00 | 14.95 | 52200 | 101000 (1973) | 10200 (1971) | 39100 | 13700 | 14700 | 18800 | 20400 | 35100 | 52900 | 57500 | 71400 | 79700 |
| 2026-05-03 20:30 | 14.97 | 52100 | 101000 (1973) | 10200 (1971) | 39100 | 13700 | 14700 | 18800 | 20400 | 35100 | 52900 | 57500 | 71400 | 79700 |
| 2026-05-03 20:00 | 14.97 | 52300 | 101000 (1973) | 10200 (1971) | 39100 | 13700 | 14700 | 18800 | 20400 | 35100 | 52900 | 57500 | 71400 | 79700 |
| 2026-05-03 19:30 | 14.97 | 52300 | 101000 (1973) | 10200 (1971) | 39100 | 13700 | 14700 | 18800 | 20400 | 35100 | 52900 | 57500 | 71400 | 79700 |
| 2026-05-03 19:00 | 14.99 | 52200 | 101000 (1973) | 10200 (1971) | 39100 | 13700 | 14700 | 18800 | 20400 | 35100 | 52900 | 57500 | 71400 | 79700 |
| 2026-05-03 18:30 | 14.98 | 52300 | 101000 (1973) | 10200 (1971) | 39100 | 13700 | 14700 | 18800 | 20400 | 35100 | 52900 | 57500 | 71400 | 79700 |
| 2026-05-03 18:00 | 15.00 | 52300 | 101000 (1973) | 10200 (1971) | 39100 | 13700 | 14700 | 18800 | 20400 | 35100 | 52900 | 57500 | 71400 | 79700 |
| 2026-05-03 17:30 | 14.98 | 52500 | 101000 (1973) | 10200 (1971) | 39100 | 13700 | 14700 | 18800 | 20400 | 35100 | 52900 | 57500 | 71400 | 79700 |
| 2026-05-03 17:00 | 15.01 | 52200 | 101000 (1973) | 10200 (1971) | 39100 | 13700 | 14700 | 18800 | 20400 | 35100 | 52900 | 57500 | 71400 | 79700 |
| 2026-05-03 16:30 | 15.00 | 52400 | 101000 (1973) | 10200 (1971) | 39100 | 13700 | 14700 | 18800 | 20400 | 35100 | 52900 | 57500 | 71400 | 79700 |
| 2026-05-03 16:00 | 15.01 | 52600 | 101000 (1973) | 10200 (1971) | 39100 | 13700 | 14700 | 18800 | 20400 | 35100 | 52900 | 57500 | 71400 | 79700 |
| 2026-05-03 15:30 | 15.03 | 51000 | 101000 (1973) | 10200 (1971) | 39100 | 13700 | 14700 | 18800 | 20400 | 35100 | 52900 | 57500 | 71400 | 79700 |
| 2026-05-03 15:00 | 15.03 | 52400 | 101000 (1973) | 10200 (1971) | 39100 | 13700 | 14700 | 18800 | 20400 | 35100 | 52900 | 57500 | 71400 | 79700 |
| 2026-05-03 14:30 | 15.03 | 52200 | 101000 (1973) | 10200 (1971) | 39100 | 13700 | 14700 | 18800 | 20400 | 35100 | 52900 | 57500 | 71400 | 79700 |
| 2026-05-03 14:00 | 15.04 | 52100 | 101000 (1973) | 10200 (1971) | 39100 | 13700 | 14700 | 18800 | 20400 | 35100 | 52900 | 57500 | 71400 | 79700 |
| 2026-05-03 13:30 | 15.06 | 52100 | 101000 (1973) | 10200 (1971) | 39100 | 13700 | 14700 | 18800 | 20400 | 35100 | 52900 | 57500 | 71400 | 79700 |
| 2026-05-03 13:00 | 15.01 | 52500 | 101000 (1973) | 10200 (1971) | 39100 | 13700 | 14700 | 18800 | 20400 | 35100 | 52900 | 57500 | 71400 | 79700 |
| 2026-05-03 12:30 | 15.03 | 51800 | 101000 (1973) | 10200 (1971) | 39100 | 13700 | 14700 | 18800 | 20400 | 35100 | 52900 | 57500 | 71400 | 79700 |
| 2026-05-03 12:00 | 15.06 | 51900 | 101000 (1973) | 10200 (1971) | 39100 | 13700 | 14700 | 18800 | 20400 | 35100 | 52900 | 57500 | 71400 | 79700 |
| 2026-05-03 11:30 | 15.06 | 52100 | 101000 (1973) | 10200 (1971) | 39100 | 13700 | 14700 | 18800 | 20400 | 35100 | 52900 | 57500 | 71400 | 79700 |
| 2026-05-03 11:00 | 15.08 | 52000 | 101000 (1973) | 10200 (1971) | 39100 | 13700 | 14700 | 18800 | 20400 | 35100 | 52900 | 57500 | 71400 | 79700 |
| 2026-05-03 10:30 | 15.08 | 52200 | 101000 (1973) | 10200 (1971) | 39100 | 13700 | 14700 | 18800 | 20400 | 35100 | 52900 | 57500 | 71400 | 79700 |
| 2026-05-03 10:00 | 15.10 | 52100 | 101000 (1973) | 10200 (1971) | 39100 | 13700 | 14700 | 18800 | 20400 | 35100 | 52900 | 57500 | 71400 | 79700 |
| 2026-05-03 09:30 | 15.10 | 52200 | 101000 (1973) | 10200 (1971) | 39100 | 13700 | 14700 | 18800 | 20400 | 35100 | 52900 | 57500 | 71400 | 79700 |
| 2026-05-03 09:00 | 15.11 | 52000 | 101000 (1973) | 10200 (1971) | 39100 | 13700 | 14700 | 18800 | 20400 | 35100 | 52900 | 57500 | 71400 | 79700 |
| 2026-05-03 08:30 | 15.11 | 52100 | 101000 (1973) | 10200 (1971) | 39100 | 13700 | 14700 | 18800 | 20400 | 35100 | 52900 | 57500 | 71400 | 79700 |
| 2026-05-03 08:00 | 15.12 | 51900 | 101000 (1973) | 10200 (1971) | 39100 | 13700 | 14700 | 18800 | 20400 | 35100 | 52900 | 57500 | 71400 | 79700 |
| 2026-05-03 07:30 | 15.13 | 51900 | 101000 (1973) | 10200 (1971) | 39100 | 13700 | 14700 | 18800 | 20400 | 35100 | 52900 | 57500 | 71400 | 79700 |
| 2026-05-03 07:00 | 15.13 | 52200 | 101000 (1973) | 10200 (1971) | 39100 | 13700 | 14700 | 18800 | 20400 | 35100 | 52900 | 57500 | 71400 | 79700 |
| 2026-05-03 06:30 | 15.15 | 51800 | 101000 (1973) | 10200 (1971) | 39100 | 13700 | 14700 | 18800 | 20400 | 35100 | 52900 | 57500 | 71400 | 79700 |
| 2026-05-03 06:00 | 15.14 | 51900 | 101000 (1973) | 10200 (1971) | 39100 | 13700 | 14700 | 18800 | 20400 | 35100 | 52900 | 57500 | 71400 | 79700 |
| 2026-05-03 05:30 | 15.15 | 52000 | 101000 (1973) | 10200 (1971) | 39100 | 13700 | 14700 | 18800 | 20400 | 35100 | 52900 | 57500 | 71400 | 79700 |
| 2026-05-03 05:00 | 15.14 | 52300 | 101000 (1973) | 10200 (1971) | 39100 | 13700 | 14700 | 18800 | 20400 | 35100 | 52900 | 57500 | 71400 | 79700 |
| 2026-05-03 04:30 | 15.14 | 52300 | 101000 (1973) | 10200 (1971) | 39100 | 13700 | 14700 | 18800 | 20400 | 35100 | 52900 | 57500 | 71400 | 79700 |
| 2026-05-03 04:00 | 15.16 | 52000 | 101000 (1973) | 10200 (1971) | 39100 | 13700 | 14700 | 18800 | 20400 | 35100 | 52900 | 57500 | 71400 | 79700 |
| 2026-05-03 03:30 | 15.16 | 52200 | 101000 (1973) | 10200 (1971) | 39100 | 13700 | 14700 | 18800 | 20400 | 35100 | 52900 | 57500 | 71400 | 79700 |
| 2026-05-03 03:00 | 15.19 | 51800 | 101000 (1973) | 10200 (1971) | 39100 | 13700 | 14700 | 18800 | 20400 | 35100 | 52900 | 57500 | 71400 | 79700 |
| 2026-05-03 02:30 | 15.18 | 52000 | 101000 (1973) | 10200 (1971) | 39100 | 13700 | 14700 | 18800 | 20400 | 35100 | 52900 | 57500 | 71400 | 79700 |
| 2026-05-03 02:00 | 15.19 | 52000 | 101000 (1973) | 10200 (1971) | 39100 | 13700 | 14700 | 18800 | 20400 | 35100 | 52900 | 57500 | 71400 | 79700 |
| 2026-05-03 01:30 | 15.19 | 52200 | 101000 (1973) | 10200 (1971) | 39100 | 13700 | 14700 | 18800 | 20400 | 35100 | 52900 | 57500 | 71400 | 79700 |
| 2026-05-03 01:00 | 15.18 | 52300 | 101000 (1973) | 10200 (1971) | 39100 | 13700 | 14700 | 18800 | 20400 | 35100 | 52900 | 57500 | 71400 | 79700 |
| 2026-05-03 00:30 | 15.20 | 52000 | 101000 (1973) | 10200 (1971) | 39100 | 13700 | 14700 | 18800 | 20400 | 35100 | 52900 | 57500 | 71400 | 79700 |
| 2026-05-03 00:00 | 15.21 | 52100 | 101000 (1973) | 10200 (1971) | 39100 | 13700 | 14700 | 18800 | 20400 | 35100 | 52900 | 57500 | 71400 | 79700 |
| 2026-05-02 23:30 | 15.21 | 52100 | 101000 (1973) | 10200 (1971) | 39100 | 13700 | 14700 | 18800 | 20400 | 35100 | 52900 | 57500 | 71400 | 79700 |
| 2026-05-02 23:00 | 15.21 | 52100 | 101000 (1973) | 10200 (1971) | 39100 | 13700 | 14700 | 18800 | 20400 | 35100 | 52900 | 57500 | 71400 | 79700 |
| 2026-05-02 22:30 | 15.21 | 51900 | 101000 (2013) | 10000 (1971) | 38800 | 12600 | 15000 | 19600 | 21900 | 34200 | 50600 | 55100 | 68600 | 78800 |
| 2026-05-02 22:00 | 15.23 | 52000 | 101000 (2013) | 10000 (1971) | 38800 | 12600 | 15000 | 19600 | 21900 | 34200 | 50600 | 55100 | 68600 | 78800 |
| 2026-05-02 21:30 | 15.25 | 51800 | 101000 (2013) | 10000 (1971) | 38800 | 12600 | 15000 | 19600 | 21900 | 34200 | 50600 | 55100 | 68600 | 78800 |
| 2026-05-02 21:00 | 15.24 | 51900 | 101000 (2013) | 10000 (1971) | 38800 | 12600 | 15000 | 19600 | 21900 | 34200 | 50600 | 55100 | 68600 | 78800 |
| 2026-05-02 20:30 | 15.25 | 52000 | 101000 (2013) | 10000 (1971) | 38800 | 12600 | 15000 | 19600 | 21900 | 34200 | 50600 | 55100 | 68600 | 78800 |
| 2026-05-02 20:00 | 15.23 | 52300 | 101000 (2013) | 10000 (1971) | 38800 | 12600 | 15000 | 19600 | 21900 | 34200 | 50600 | 55100 | 68600 | 78800 |
| 2026-05-02 19:30 | 15.25 | 52100 | 101000 (2013) | 10000 (1971) | 38800 | 12600 | 15000 | 19600 | 21900 | 34200 | 50600 | 55100 | 68600 | 78800 |
| 2026-05-02 19:00 | 15.23 | 52300 | 101000 (2013) | 10000 (1971) | 38800 | 12600 | 15000 | 19600 | 21900 | 34200 | 50600 | 55100 | 68600 | 78800 |
| 2026-05-02 18:30 | 15.25 | 52100 | 101000 (2013) | 10000 (1971) | 38800 | 12600 | 15000 | 19600 | 21900 | 34200 | 50600 | 55100 | 68600 | 78800 |
| 2026-05-02 18:00 | 15.27 | 52200 | 101000 (2013) | 10000 (1971) | 38800 | 12600 | 15000 | 19600 | 21900 | 34200 | 50600 | 55100 | 68600 | 78800 |
| 2026-05-02 17:30 | 15.25 | 52400 | 101000 (2013) | 10000 (1971) | 38800 | 12600 | 15000 | 19600 | 21900 | 34200 | 50600 | 55100 | 68600 | 78800 |
| 2026-05-02 17:00 | 15.28 | 51800 | 101000 (2013) | 10000 (1971) | 38800 | 12600 | 15000 | 19600 | 21900 | 34200 | 50600 | 55100 | 68600 | 78800 |
| 2026-05-02 16:30 | 15.27 | 52400 | 101000 (2013) | 10000 (1971) | 38800 | 12600 | 15000 | 19600 | 21900 | 34200 | 50600 | 55100 | 68600 | 78800 |
| 2026-05-02 16:00 | 15.27 | 52100 | 101000 (2013) | 10000 (1971) | 38800 | 12600 | 15000 | 19600 | 21900 | 34200 | 50600 | 55100 | 68600 | 78800 |
| 2026-05-02 15:30 | 15.31 | 51600 | 101000 (2013) | 10000 (1971) | 38800 | 12600 | 15000 | 19600 | 21900 | 34200 | 50600 | 55100 | 68600 | 78800 |
| 2026-05-02 15:00 | 15.30 | 52100 | 101000 (2013) | 10000 (1971) | 38800 | 12600 | 15000 | 19600 | 21900 | 34200 | 50600 | 55100 | 68600 | 78800 |
| 2026-05-02 14:30 | 15.32 | 51700 | 101000 (2013) | 10000 (1971) | 38800 | 12600 | 15000 | 19600 | 21900 | 34200 | 50600 | 55100 | 68600 | 78800 |
| 2026-05-02 14:00 | 15.30 | 51900 | 101000 (2013) | 10000 (1971) | 38800 | 12600 | 15000 | 19600 | 21900 | 34200 | 50600 | 55100 | 68600 | 78800 |
| 2026-05-02 13:30 | 15.30 | 51900 | 101000 (2013) | 10000 (1971) | 38800 | 12600 | 15000 | 19600 | 21900 | 34200 | 50600 | 55100 | 68600 | 78800 |
| 2026-05-02 13:00 | 15.32 | 51800 | 101000 (2013) | 10000 (1971) | 38800 | 12600 | 15000 | 19600 | 21900 | 34200 | 50600 | 55100 | 68600 | 78800 |
| 2026-05-02 12:30 | 15.32 | 51800 | 101000 (2013) | 10000 (1971) | 38800 | 12600 | 15000 | 19600 | 21900 | 34200 | 50600 | 55100 | 68600 | 78800 |
| 2026-05-02 12:00 | 15.32 | 51800 | 101000 (2013) | 10000 (1971) | 38800 | 12600 | 15000 | 19600 | 21900 | 34200 | 50600 | 55100 | 68600 | 78800 |
| 2026-05-02 11:30 | 15.32 | 52000 | 101000 (2013) | 10000 (1971) | 38800 | 12600 | 15000 | 19600 | 21900 | 34200 | 50600 | 55100 | 68600 | 78800 |
| 2026-05-02 11:00 | 15.32 | 51700 | 101000 (2013) | 10000 (1971) | 38800 | 12600 | 15000 | 19600 | 21900 | 34200 | 50600 | 55100 | 68600 | 78800 |
| 2026-05-02 10:30 | 15.33 | 51700 | 101000 (2013) | 10000 (1971) | 38800 | 12600 | 15000 | 19600 | 21900 | 34200 | 50600 | 55100 | 68600 | 78800 |
| 2026-05-02 10:00 | 15.32 | 52000 | 101000 (2013) | 10000 (1971) | 38800 | 12600 | 15000 | 19600 | 21900 | 34200 | 50600 | 55100 | 68600 | 78800 |
| 2026-05-02 09:30 | 15.32 | 51800 | 101000 (2013) | 10000 (1971) | 38800 | 12600 | 15000 | 19600 | 21900 | 34200 | 50600 | 55100 | 68600 | 78800 |
| 2026-05-02 09:00 | 15.32 | 52000 | 101000 (2013) | 10000 (1971) | 38800 | 12600 | 15000 | 19600 | 21900 | 34200 | 50600 | 55100 | 68600 | 78800 |
| 2026-05-02 08:30 | 15.34 | 51800 | 101000 (2013) | 10000 (1971) | 38800 | 12600 | 15000 | 19600 | 21900 | 34200 | 50600 | 55100 | 68600 | 78800 |
| 2026-05-02 08:00 | 15.33 | 51700 | 101000 (2013) | 10000 (1971) | 38800 | 12600 | 15000 | 19600 | 21900 | 34200 | 50600 | 55100 | 68600 | 78800 |
| 2026-05-02 07:30 | 15.34 | 51800 | 101000 (2013) | 10000 (1971) | 38800 | 12600 | 15000 | 19600 | 21900 | 34200 | 50600 | 55100 | 68600 | 78800 |
| 2026-05-02 07:00 | 15.37 | 51100 | 101000 (2013) | 10000 (1971) | 38800 | 12600 | 15000 | 19600 | 21900 | 34200 | 50600 | 55100 | 68600 | 78800 |
| 2026-05-02 06:30 | 15.35 | 48700 | 101000 (2013) | 10000 (1971) | 38800 | 12600 | 15000 | 19600 | 21900 | 34200 | 50600 | 55100 | 68600 | 78800 |
| 2026-05-02 06:00 | 15.35 | 52000 | 101000 (2013) | 10000 (1971) | 38800 | 12600 | 15000 | 19600 | 21900 | 34200 | 50600 | 55100 | 68600 | 78800 |
| 2026-05-02 05:30 | 15.34 | 51500 | 101000 (2013) | 10000 (1971) | 38800 | 12600 | 15000 | 19600 | 21900 | 34200 | 50600 | 55100 | 68600 | 78800 |
| 2026-05-02 05:00 | 15.34 | 51600 | 101000 (2013) | 10000 (1971) | 38800 | 12600 | 15000 | 19600 | 21900 | 34200 | 50600 | 55100 | 68600 | 78800 |
| 2026-05-02 04:30 | 15.36 | 51400 | 101000 (2013) | 10000 (1971) | 38800 | 12600 | 15000 | 19600 | 21900 | 34200 | 50600 | 55100 | 68600 | 78800 |
| 2026-05-02 04:00 | 15.37 | 51400 | 101000 (2013) | 10000 (1971) | 38800 | 12600 | 15000 | 19600 | 21900 | 34200 | 50600 | 55100 | 68600 | 78800 |
| 2026-05-02 03:30 | 15.38 | 51200 | 101000 (2013) | 10000 (1971) | 38800 | 12600 | 15000 | 19600 | 21900 | 34200 | 50600 | 55100 | 68600 | 78800 |
| 2026-05-02 03:00 | 15.38 | 51000 | 101000 (2013) | 10000 (1971) | 38800 | 12600 | 15000 | 19600 | 21900 | 34200 | 50600 | 55100 | 68600 | 78800 |
| 2026-05-02 02:30 | 15.36 | 51400 | 101000 (2013) | 10000 (1971) | 38800 | 12600 | 15000 | 19600 | 21900 | 34200 | 50600 | 55100 | 68600 | 78800 |
| 2026-05-02 02:00 | 15.36 | 51200 | 101000 (2013) | 10000 (1971) | 38800 | 12600 | 15000 | 19600 | 21900 | 34200 | 50600 | 55100 | 68600 | 78800 |
| 2026-05-02 01:30 | 15.36 | 51400 | 101000 (2013) | 10000 (1971) | 38800 | 12600 | 15000 | 19600 | 21900 | 34200 | 50600 | 55100 | 68600 | 78800 |
| 2026-05-02 01:00 | 15.37 | 51300 | 101000 (2013) | 10000 (1971) | 38800 | 12600 | 15000 | 19600 | 21900 | 34200 | 50600 | 55100 | 68600 | 78800 |
| 2026-05-02 00:30 | 15.37 | 51100 | 101000 (2013) | 10000 (1971) | 38800 | 12600 | 15000 | 19600 | 21900 | 34200 | 50600 | 55100 | 68600 | 78800 |
| 2026-05-02 00:00 | 15.34 | 51300 | 101000 (2013) | 10000 (1971) | 38800 | 12600 | 15000 | 19600 | 21900 | 34200 | 50600 | 55100 | 68600 | 78800 |
| 2026-05-01 23:30 | 15.38 | 51000 | 101000 (2013) | 10000 (1971) | 38800 | 12600 | 15000 | 19600 | 21900 | 34200 | 50600 | 55100 | 68600 | 78800 |
| 2026-05-01 23:00 | 15.36 | 51200 | 101000 (2013) | 10000 (1971) | 38800 | 12600 | 15000 | 19600 | 21900 | 34200 | 50600 | 55100 | 68600 | 78800 |
| 2026-05-01 22:30 | 15.38 | 51000 | 104000 (2013) | 9530 (1940) | 38900 | 11600 | 14800 | 20100 | 22800 | 34600 | 49900 | 53600 | 67100 | 79300 |
| 2026-05-01 22:00 | 15.36 | 51200 | 104000 (2013) | 9530 (1940) | 38900 | 11600 | 14800 | 20100 | 22800 | 34600 | 49900 | 53600 | 67100 | 79300 |
| 2026-05-01 21:30 | 15.37 | 51100 | 104000 (2013) | 9530 (1940) | 38900 | 11600 | 14800 | 20100 | 22800 | 34600 | 49900 | 53600 | 67100 | 79300 |
| 2026-05-01 21:00 | 15.38 | 51000 | 104000 (2013) | 9530 (1940) | 38900 | 11600 | 14800 | 20100 | 22800 | 34600 | 49900 | 53600 | 67100 | 79300 |
| 2026-05-01 20:30 | 15.37 | 50900 | 104000 (2013) | 9530 (1940) | 38900 | 11600 | 14800 | 20100 | 22800 | 34600 | 49900 | 53600 | 67100 | 79300 |
| 2026-05-01 20:00 | 15.36 | 51100 | 104000 (2013) | 9530 (1940) | 38900 | 11600 | 14800 | 20100 | 22800 | 34600 | 49900 | 53600 | 67100 | 79300 |
| 2026-05-01 19:30 | 15.36 | 51100 | 104000 (2013) | 9530 (1940) | 38900 | 11600 | 14800 | 20100 | 22800 | 34600 | 49900 | 53600 | 67100 | 79300 |
| 2026-05-01 19:00 | 15.35 | 51200 | 104000 (2013) | 9530 (1940) | 38900 | 11600 | 14800 | 20100 | 22800 | 34600 | 49900 | 53600 | 67100 | 79300 |
| 2026-05-01 18:30 | 15.35 | 51000 | 104000 (2013) | 9530 (1940) | 38900 | 11600 | 14800 | 20100 | 22800 | 34600 | 49900 | 53600 | 67100 | 79300 |
| 2026-05-01 18:00 | 15.36 | 50900 | 104000 (2013) | 9530 (1940) | 38900 | 11600 | 14800 | 20100 | 22800 | 34600 | 49900 | 53600 | 67100 | 79300 |
| 2026-05-01 17:30 | 15.35 | 50800 | 104000 (2013) | 9530 (1940) | 38900 | 11600 | 14800 | 20100 | 22800 | 34600 | 49900 | 53600 | 67100 | 79300 |
| 2026-05-01 17:00 | 15.37 | 50800 | 104000 (2013) | 9530 (1940) | 38900 | 11600 | 14800 | 20100 | 22800 | 34600 | 49900 | 53600 | 67100 | 79300 |
| 2026-05-01 16:30 | 15.34 | 49600 | 104000 (2013) | 9530 (1940) | 38900 | 11600 | 14800 | 20100 | 22800 | 34600 | 49900 | 53600 | 67100 | 79300 |
| 2026-05-01 16:00 | 15.33 | 51100 | 104000 (2013) | 9530 (1940) | 38900 | 11600 | 14800 | 20100 | 22800 | 34600 | 49900 | 53600 | 67100 | 79300 |
| 2026-05-01 15:30 | 15.33 | 51100 | 104000 (2013) | 9530 (1940) | 38900 | 11600 | 14800 | 20100 | 22800 | 34600 | 49900 | 53600 | 67100 | 79300 |
| 2026-05-01 15:00 | 15.35 | 50700 | 104000 (2013) | 9530 (1940) | 38900 | 11600 | 14800 | 20100 | 22800 | 34600 | 49900 | 53600 | 67100 | 79300 |
| 2026-05-01 14:30 | 15.34 | 50800 | 104000 (2013) | 9530 (1940) | 38900 | 11600 | 14800 | 20100 | 22800 | 34600 | 49900 | 53600 | 67100 | 79300 |
| 2026-05-01 14:00 | 15.34 | 50800 | 104000 (2013) | 9530 (1940) | 38900 | 11600 | 14800 | 20100 | 22800 | 34600 | 49900 | 53600 | 67100 | 79300 |
| 2026-05-01 13:30 | 15.34 | 50800 | 104000 (2013) | 9530 (1940) | 38900 | 11600 | 14800 | 20100 | 22800 | 34600 | 49900 | 53600 | 67100 | 79300 |
| 2026-05-01 13:00 | 15.29 | 51400 | 104000 (2013) | 9530 (1940) | 38900 | 11600 | 14800 | 20100 | 22800 | 34600 | 49900 | 53600 | 67100 | 79300 |
| 2026-05-01 12:30 | 15.34 | 50600 | 104000 (2013) | 9530 (1940) | 38900 | 11600 | 14800 | 20100 | 22800 | 34600 | 49900 | 53600 | 67100 | 79300 |
| 2026-05-01 12:00 | 15.30 | 51300 | 104000 (2013) | 9530 (1940) | 38900 | 11600 | 14800 | 20100 | 22800 | 34600 | 49900 | 53600 | 67100 | 79300 |
| 2026-05-01 11:30 | 15.34 | 50600 | 104000 (2013) | 9530 (1940) | 38900 | 11600 | 14800 | 20100 | 22800 | 34600 | 49900 | 53600 | 67100 | 79300 |
| 2026-05-01 11:00 | 15.32 | 50900 | 104000 (2013) | 9530 (1940) | 38900 | 11600 | 14800 | 20100 | 22800 | 34600 | 49900 | 53600 | 67100 | 79300 |
| 2026-05-01 10:30 | 15.31 | 50700 | 104000 (2013) | 9530 (1940) | 38900 | 11600 | 14800 | 20100 | 22800 | 34600 | 49900 | 53600 | 67100 | 79300 |
| 2026-05-01 10:00 | 15.30 | 51100 | 104000 (2013) | 9530 (1940) | 38900 | 11600 | 14800 | 20100 | 22800 | 34600 | 49900 | 53600 | 67100 | 79300 |
| 2026-05-01 09:30 | 15.32 | 50900 | 104000 (2013) | 9530 (1940) | 38900 | 11600 | 14800 | 20100 | 22800 | 34600 | 49900 | 53600 | 67100 | 79300 |
| 2026-05-01 09:00 | 15.30 | 50600 | 104000 (2013) | 9530 (1940) | 38900 | 11600 | 14800 | 20100 | 22800 | 34600 | 49900 | 53600 | 67100 | 79300 |
| 2026-05-01 08:30 | 15.30 | 50600 | 104000 (2013) | 9530 (1940) | 38900 | 11600 | 14800 | 20100 | 22800 | 34600 | 49900 | 53600 | 67100 | 79300 |
| 2026-05-01 08:00 | 15.28 | 51000 | 104000 (2013) | 9530 (1940) | 38900 | 11600 | 14800 | 20100 | 22800 | 34600 | 49900 | 53600 | 67100 | 79300 |
| 2026-05-01 07:30 | 15.30 | 49400 | 104000 (2013) | 9530 (1940) | 38900 | 11600 | 14800 | 20100 | 22800 | 34600 | 49900 | 53600 | 67100 | 79300 |
| 2026-05-01 07:00 | 15.29 | 50900 | 104000 (2013) | 9530 (1940) | 38900 | 11600 | 14800 | 20100 | 22800 | 34600 | 49900 | 53600 | 67100 | 79300 |
| 2026-05-01 06:30 | 15.28 | 50700 | 104000 (2013) | 9530 (1940) | 38900 | 11600 | 14800 | 20100 | 22800 | 34600 | 49900 | 53600 | 67100 | 79300 |
| 2026-05-01 06:00 | 15.27 | 50600 | 104000 (2013) | 9530 (1940) | 38900 | 11600 | 14800 | 20100 | 22800 | 34600 | 49900 | 53600 | 67100 | 79300 |
| 2026-05-01 05:30 | 15.28 | 50500 | 104000 (2013) | 9530 (1940) | 38900 | 11600 | 14800 | 20100 | 22800 | 34600 | 49900 | 53600 | 67100 | 79300 |
| 2026-05-01 05:00 | 15.30 | 50300 | 104000 (2013) | 9530 (1940) | 38900 | 11600 | 14800 | 20100 | 22800 | 34600 | 49900 | 53600 | 67100 | 79300 |
| 2026-05-01 04:30 | 15.29 | 50200 | 104000 (2013) | 9530 (1940) | 38900 | 11600 | 14800 | 20100 | 22800 | 34600 | 49900 | 53600 | 67100 | 79300 |
| 2026-05-01 04:00 | 15.28 | 50300 | 104000 (2013) | 9530 (1940) | 38900 | 11600 | 14800 | 20100 | 22800 | 34600 | 49900 | 53600 | 67100 | 79300 |
| 2026-05-01 03:30 | 15.27 | 50500 | 104000 (2013) | 9530 (1940) | 38900 | 11600 | 14800 | 20100 | 22800 | 34600 | 49900 | 53600 | 67100 | 79300 |
| 2026-05-01 03:00 | 15.27 | 50300 | 104000 (2013) | 9530 (1940) | 38900 | 11600 | 14800 | 20100 | 22800 | 34600 | 49900 | 53600 | 67100 | 79300 |
| 2026-05-01 02:30 | 15.26 | 50400 | 104000 (2013) | 9530 (1940) | 38900 | 11600 | 14800 | 20100 | 22800 | 34600 | 49900 | 53600 | 67100 | 79300 |
| 2026-05-01 02:00 | 15.25 | 50500 | 104000 (2013) | 9530 (1940) | 38900 | 11600 | 14800 | 20100 | 22800 | 34600 | 49900 | 53600 | 67100 | 79300 |
| 2026-05-01 01:30 | 15.26 | 50200 | 104000 (2013) | 9530 (1940) | 38900 | 11600 | 14800 | 20100 | 22800 | 34600 | 49900 | 53600 | 67100 | 79300 |
| 2026-05-01 01:00 | 15.23 | 50600 | 104000 (2013) | 9530 (1940) | 38900 | 11600 | 14800 | 20100 | 22800 | 34600 | 49900 | 53600 | 67100 | 79300 |
| 2026-05-01 00:30 | 15.23 | 50400 | 104000 (2013) | 9530 (1940) | 38900 | 11600 | 14800 | 20100 | 22800 | 34600 | 49900 | 53600 | 67100 | 79300 |
| 2026-05-01 00:00 | 15.23 | 50400 | 104000 (2013) | 9530 (1940) | 38900 | 11600 | 14800 | 20100 | 22800 | 34600 | 49900 | 53600 | 67100 | 79300 |
| 2026-04-30 23:30 | 15.23 | 50400 | 104000 (2013) | 9530 (1940) | 38900 | 11600 | 14800 | 20100 | 22800 | 34600 | 49900 | 53600 | 67100 | 79300 |
| 2026-04-30 23:00 | 15.22 | 50500 | 104000 (2013) | 9530 (1940) | 38900 | 11600 | 14800 | 20100 | 22800 | 34600 | 49900 | 53600 | 67100 | 79300 |
| 2026-04-30 22:30 | 15.22 | 50400 | 107000 (2013) | 9460 (1940) | 38900 | 11700 | 13600 | 20200 | 22700 | 34900 | 49600 | 53400 | 68100 | 81500 |
| 2026-04-30 22:00 | 15.20 | 50400 | 107000 (2013) | 9460 (1940) | 38900 | 11700 | 13600 | 20200 | 22700 | 34900 | 49600 | 53400 | 68100 | 81500 |
| 2026-04-30 21:30 | 15.21 | 50300 | 107000 (2013) | 9460 (1940) | 38900 | 11700 | 13600 | 20200 | 22700 | 34900 | 49600 | 53400 | 68100 | 81500 |
| 2026-04-30 21:00 | 15.21 | 50300 | 107000 (2013) | 9460 (1940) | 38900 | 11700 | 13600 | 20200 | 22700 | 34900 | 49600 | 53400 | 68100 | 81500 |
| 2026-04-30 20:30 | 15.22 | 50200 | 107000 (2013) | 9460 (1940) | 38900 | 11700 | 13600 | 20200 | 22700 | 34900 | 49600 | 53400 | 68100 | 81500 |
| 2026-04-30 20:00 | 15.22 | 50100 | 107000 (2013) | 9460 (1940) | 38900 | 11700 | 13600 | 20200 | 22700 | 34900 | 49600 | 53400 | 68100 | 81500 |
| 2026-04-30 19:30 | 15.21 | 50000 | 107000 (2013) | 9460 (1940) | 38900 | 11700 | 13600 | 20200 | 22700 | 34900 | 49600 | 53400 | 68100 | 81500 |
| 2026-04-30 19:00 | 15.20 | 50300 | 107000 (2013) | 9460 (1940) | 38900 | 11700 | 13600 | 20200 | 22700 | 34900 | 49600 | 53400 | 68100 | 81500 |
| 2026-04-30 18:30 | 15.19 | 50600 | 107000 (2013) | 9460 (1940) | 38900 | 11700 | 13600 | 20200 | 22700 | 34900 | 49600 | 53400 | 68100 | 81500 |
| 2026-04-30 18:00 | 15.21 | 50000 | 107000 (2013) | 9460 (1940) | 38900 | 11700 | 13600 | 20200 | 22700 | 34900 | 49600 | 53400 | 68100 | 81500 |
| 2026-04-30 17:30 | 15.19 | 49900 | 107000 (2013) | 9460 (1940) | 38900 | 11700 | 13600 | 20200 | 22700 | 34900 | 49600 | 53400 | 68100 | 81500 |
| 2026-04-30 17:00 | 15.17 | 50200 | 107000 (2013) | 9460 (1940) | 38900 | 11700 | 13600 | 20200 | 22700 | 34900 | 49600 | 53400 | 68100 | 81500 |
| 2026-04-30 16:30 | 15.16 | 50100 | 107000 (2013) | 9460 (1940) | 38900 | 11700 | 13600 | 20200 | 22700 | 34900 | 49600 | 53400 | 68100 | 81500 |
| 2026-04-30 16:00 | 15.17 | 50000 | 107000 (2013) | 9460 (1940) | 38900 | 11700 | 13600 | 20200 | 22700 | 34900 | 49600 | 53400 | 68100 | 81500 |
| 2026-04-30 15:30 | 15.17 | 49800 | 107000 (2013) | 9460 (1940) | 38900 | 11700 | 13600 | 20200 | 22700 | 34900 | 49600 | 53400 | 68100 | 81500 |
| 2026-04-30 15:00 | 15.18 | 49700 | 107000 (2013) | 9460 (1940) | 38900 | 11700 | 13600 | 20200 | 22700 | 34900 | 49600 | 53400 | 68100 | 81500 |
| 2026-04-30 14:30 | 15.17 | 49700 | 107000 (2013) | 9460 (1940) | 38900 | 11700 | 13600 | 20200 | 22700 | 34900 | 49600 | 53400 | 68100 | 81500 |
| 2026-04-30 14:00 | 15.15 | 49900 | 107000 (2013) | 9460 (1940) | 38900 | 11700 | 13600 | 20200 | 22700 | 34900 | 49600 | 53400 | 68100 | 81500 |
| 2026-04-30 13:30 | 15.15 | 49800 | 107000 (2013) | 9460 (1940) | 38900 | 11700 | 13600 | 20200 | 22700 | 34900 | 49600 | 53400 | 68100 | 81500 |
| 2026-04-30 13:00 | 15.13 | 50000 | 107000 (2013) | 9460 (1940) | 38900 | 11700 | 13600 | 20200 | 22700 | 34900 | 49600 | 53400 | 68100 | 81500 |
| 2026-04-30 12:30 | 15.12 | 50000 | 107000 (2013) | 9460 (1940) | 38900 | 11700 | 13600 | 20200 | 22700 | 34900 | 49600 | 53400 | 68100 | 81500 |
| 2026-04-30 12:00 | 15.13 | 50000 | 107000 (2013) | 9460 (1940) | 38900 | 11700 | 13600 | 20200 | 22700 | 34900 | 49600 | 53400 | 68100 | 81500 |
| 2026-04-30 11:30 | 15.12 | 49800 | 107000 (2013) | 9460 (1940) | 38900 | 11700 | 13600 | 20200 | 22700 | 34900 | 49600 | 53400 | 68100 | 81500 |
| 2026-04-30 11:00 | 15.10 | 50200 | 107000 (2013) | 9460 (1940) | 38900 | 11700 | 13600 | 20200 | 22700 | 34900 | 49600 | 53400 | 68100 | 81500 |
| 2026-04-30 10:30 | 15.09 | 50200 | 107000 (2013) | 9460 (1940) | 38900 | 11700 | 13600 | 20200 | 22700 | 34900 | 49600 | 53400 | 68100 | 81500 |
| 2026-04-30 10:00 | 15.10 | 49700 | 107000 (2013) | 9460 (1940) | 38900 | 11700 | 13600 | 20200 | 22700 | 34900 | 49600 | 53400 | 68100 | 81500 |
| 2026-04-30 09:30 | 15.09 | 49800 | 107000 (2013) | 9460 (1940) | 38900 | 11700 | 13600 | 20200 | 22700 | 34900 | 49600 | 53400 | 68100 | 81500 |
| 2026-04-30 09:00 | 15.10 | 49600 | 107000 (2013) | 9460 (1940) | 38900 | 11700 | 13600 | 20200 | 22700 | 34900 | 49600 | 53400 | 68100 | 81500 |
| 2026-04-30 08:30 | 15.07 | 49800 | 107000 (2013) | 9460 (1940) | 38900 | 11700 | 13600 | 20200 | 22700 | 34900 | 49600 | 53400 | 68100 | 81500 |
| 2026-04-30 08:00 | 15.08 | 49500 | 107000 (2013) | 9460 (1940) | 38900 | 11700 | 13600 | 20200 | 22700 | 34900 | 49600 | 53400 | 68100 | 81500 |
| 2026-04-30 07:30 | 15.07 | 49400 | 107000 (2013) | 9460 (1940) | 38900 | 11700 | 13600 | 20200 | 22700 | 34900 | 49600 | 53400 | 68100 | 81500 |
| 2026-04-30 07:00 | 15.06 | 49600 | 107000 (2013) | 9460 (1940) | 38900 | 11700 | 13600 | 20200 | 22700 | 34900 | 49600 | 53400 | 68100 | 81500 |
| 2026-04-30 06:30 | 15.04 | 49600 | 107000 (2013) | 9460 (1940) | 38900 | 11700 | 13600 | 20200 | 22700 | 34900 | 49600 | 53400 | 68100 | 81500 |
| 2026-04-30 06:00 | 15.03 | 49600 | 107000 (2013) | 9460 (1940) | 38900 | 11700 | 13600 | 20200 | 22700 | 34900 | 49600 | 53400 | 68100 | 81500 |
| 2026-04-30 05:30 | 15.02 | 49600 | 107000 (2013) | 9460 (1940) | 38900 | 11700 | 13600 | 20200 | 22700 | 34900 | 49600 | 53400 | 68100 | 81500 |
| 2026-04-30 05:00 | 15.00 | 49800 | 107000 (2013) | 9460 (1940) | 38900 | 11700 | 13600 | 20200 | 22700 | 34900 | 49600 | 53400 | 68100 | 81500 |
| 2026-04-30 04:30 | 15.01 | 49500 | 107000 (2013) | 9460 (1940) | 38900 | 11700 | 13600 | 20200 | 22700 | 34900 | 49600 | 53400 | 68100 | 81500 |
| 2026-04-30 04:00 | 15.00 | 49500 | 107000 (2013) | 9460 (1940) | 38900 | 11700 | 13600 | 20200 | 22700 | 34900 | 49600 | 53400 | 68100 | 81500 |
| 2026-04-30 03:30 | 14.99 | 49400 | 107000 (2013) | 9460 (1940) | 38900 | 11700 | 13600 | 20200 | 22700 | 34900 | 49600 | 53400 | 68100 | 81500 |
| 2026-04-30 03:00 | 14.99 | 49400 | 107000 (2013) | 9460 (1940) | 38900 | 11700 | 13600 | 20200 | 22700 | 34900 | 49600 | 53400 | 68100 | 81500 |
| 2026-04-30 02:30 | 14.96 | 49600 | 107000 (2013) | 9460 (1940) | 38900 | 11700 | 13600 | 20200 | 22700 | 34900 | 49600 | 53400 | 68100 | 81500 |
| 2026-04-30 02:00 | 14.96 | 49500 | 107000 (2013) | 9460 (1940) | 38900 | 11700 | 13600 | 20200 | 22700 | 34900 | 49600 | 53400 | 68100 | 81500 |
| 2026-04-30 01:30 | 14.98 | 49100 | 107000 (2013) | 9460 (1940) | 38900 | 11700 | 13600 | 20200 | 22700 | 34900 | 49600 | 53400 | 68100 | 81500 |
| 2026-04-30 01:00 | 14.95 | 49400 | 107000 (2013) | 9460 (1940) | 38900 | 11700 | 13600 | 20200 | 22700 | 34900 | 49600 | 53400 | 68100 | 81500 |
| 2026-04-30 00:30 | 14.94 | 49400 | 107000 (2013) | 9460 (1940) | 38900 | 11700 | 13600 | 20200 | 22700 | 34900 | 49600 | 53400 | 68100 | 81500 |
| 2026-04-30 00:00 | 14.92 | 49600 | 107000 (2013) | 9460 (1940) | 38900 | 11700 | 13600 | 20200 | 22700 | 34900 | 49600 | 53400 | 68100 | 81500 |
| 2026-04-29 23:30 | 14.92 | 49500 | 107000 (2013) | 9460 (1940) | 38900 | 11700 | 13600 | 20200 | 22700 | 34900 | 49600 | 53400 | 68100 | 81500 |
| 2026-04-29 23:00 | 14.92 | 49500 | 107000 (2013) | 9460 (1940) | 38900 | 11700 | 13600 | 20200 | 22700 | 34900 | 49600 | 53400 | 68100 | 81500 |
| 2026-04-29 22:30 | 14.92 | 49200 | 110000 (2013) | 9780 (1986) | 38800 | 10700 | 12500 | 19700 | 22600 | 36000 | 49700 | 52100 | 68800 | 81000 |
| 2026-04-29 22:00 | 14.91 | 49300 | 110000 (2013) | 9780 (1986) | 38800 | 10700 | 12500 | 19700 | 22600 | 36000 | 49700 | 52100 | 68800 | 81000 |
| 2026-04-29 21:30 | 14.89 | 49700 | 110000 (2013) | 9780 (1986) | 38800 | 10700 | 12500 | 19700 | 22600 | 36000 | 49700 | 52100 | 68800 | 81000 |
| 2026-04-29 21:00 | 14.88 | 49500 | 110000 (2013) | 9780 (1986) | 38800 | 10700 | 12500 | 19700 | 22600 | 36000 | 49700 | 52100 | 68800 | 81000 |
| 2026-04-29 20:30 | 14.88 | 49500 | 110000 (2013) | 9780 (1986) | 38800 | 10700 | 12500 | 19700 | 22600 | 36000 | 49700 | 52100 | 68800 | 81000 |
| 2026-04-29 20:00 | 14.86 | 49500 | 110000 (2013) | 9780 (1986) | 38800 | 10700 | 12500 | 19700 | 22600 | 36000 | 49700 | 52100 | 68800 | 81000 |
| 2026-04-29 19:30 | 14.88 | 49500 | 110000 (2013) | 9780 (1986) | 38800 | 10700 | 12500 | 19700 | 22600 | 36000 | 49700 | 52100 | 68800 | 81000 |
| 2026-04-29 19:00 | 14.86 | 49700 | 110000 (2013) | 9780 (1986) | 38800 | 10700 | 12500 | 19700 | 22600 | 36000 | 49700 | 52100 | 68800 | 81000 |
| 2026-04-29 18:30 | 14.85 | 49500 | 110000 (2013) | 9780 (1986) | 38800 | 10700 | 12500 | 19700 | 22600 | 36000 | 49700 | 52100 | 68800 | 81000 |
| 2026-04-29 18:00 | 14.85 | 49500 | 110000 (2013) | 9780 (1986) | 38800 | 10700 | 12500 | 19700 | 22600 | 36000 | 49700 | 52100 | 68800 | 81000 |
| 2026-04-29 17:30 | 14.85 | 49300 | 110000 (2013) | 9780 (1986) | 38800 | 10700 | 12500 | 19700 | 22600 | 36000 | 49700 | 52100 | 68800 | 81000 |
| 2026-04-29 17:00 | 14.85 | 49200 | 110000 (2013) | 9780 (1986) | 38800 | 10700 | 12500 | 19700 | 22600 | 36000 | 49700 | 52100 | 68800 | 81000 |
| 2026-04-29 16:30 | 14.83 | 49400 | 110000 (2013) | 9780 (1986) | 38800 | 10700 | 12500 | 19700 | 22600 | 36000 | 49700 | 52100 | 68800 | 81000 |
| 2026-04-29 16:00 | 14.83 | 49300 | 110000 (2013) | 9780 (1986) | 38800 | 10700 | 12500 | 19700 | 22600 | 36000 | 49700 | 52100 | 68800 | 81000 |
| 2026-04-29 15:30 | 14.81 | 49500 | 110000 (2013) | 9780 (1986) | 38800 | 10700 | 12500 | 19700 | 22600 | 36000 | 49700 | 52100 | 68800 | 81000 |
| 2026-04-29 15:00 | 14.83 | 49100 | 110000 (2013) | 9780 (1986) | 38800 | 10700 | 12500 | 19700 | 22600 | 36000 | 49700 | 52100 | 68800 | 81000 |
| 2026-04-29 14:30 | 14.81 | 49500 | 110000 (2013) | 9780 (1986) | 38800 | 10700 | 12500 | 19700 | 22600 | 36000 | 49700 | 52100 | 68800 | 81000 |
| 2026-04-29 14:00 | 14.79 | 49400 | 110000 (2013) | 9780 (1986) | 38800 | 10700 | 12500 | 19700 | 22600 | 36000 | 49700 | 52100 | 68800 | 81000 |
| 2026-04-29 13:30 | 14.81 | 49300 | 110000 (2013) | 9780 (1986) | 38800 | 10700 | 12500 | 19700 | 22600 | 36000 | 49700 | 52100 | 68800 | 81000 |
| 2026-04-29 13:00 | 14.79 | 49400 | 110000 (2013) | 9780 (1986) | 38800 | 10700 | 12500 | 19700 | 22600 | 36000 | 49700 | 52100 | 68800 | 81000 |
| 2026-04-29 12:30 | 14.79 | 49400 | 110000 (2013) | 9780 (1986) | 38800 | 10700 | 12500 | 19700 | 22600 | 36000 | 49700 | 52100 | 68800 | 81000 |
| 2026-04-29 12:00 | 14.78 | 49400 | 110000 (2013) | 9780 (1986) | 38800 | 10700 | 12500 | 19700 | 22600 | 36000 | 49700 | 52100 | 68800 | 81000 |
| 2026-04-29 11:30 | 14.78 | 49400 | 110000 (2013) | 9780 (1986) | 38800 | 10700 | 12500 | 19700 | 22600 | 36000 | 49700 | 52100 | 68800 | 81000 |
| 2026-04-29 11:00 | 14.77 | 49300 | 110000 (2013) | 9780 (1986) | 38800 | 10700 | 12500 | 19700 | 22600 | 36000 | 49700 | 52100 | 68800 | 81000 |
| 2026-04-29 10:30 | 14.76 | 49400 | 110000 (2013) | 9780 (1986) | 38800 | 10700 | 12500 | 19700 | 22600 | 36000 | 49700 | 52100 | 68800 | 81000 |
| 2026-04-29 10:00 | 14.77 | 49200 | 110000 (2013) | 9780 (1986) | 38800 | 10700 | 12500 | 19700 | 22600 | 36000 | 49700 | 52100 | 68800 | 81000 |
| 2026-04-29 09:30 | 14.76 | 49400 | 110000 (2013) | 9780 (1986) | 38800 | 10700 | 12500 | 19700 | 22600 | 36000 | 49700 | 52100 | 68800 | 81000 |
| 2026-04-29 09:00 | 14.76 | 49300 | 110000 (2013) | 9780 (1986) | 38800 | 10700 | 12500 | 19700 | 22600 | 36000 | 49700 | 52100 | 68800 | 81000 |
| 2026-04-29 08:30 | 14.76 | 49100 | 110000 (2013) | 9780 (1986) | 38800 | 10700 | 12500 | 19700 | 22600 | 36000 | 49700 | 52100 | 68800 | 81000 |
| 2026-04-29 08:00 | 14.75 | 49100 | 110000 (2013) | 9780 (1986) | 38800 | 10700 | 12500 | 19700 | 22600 | 36000 | 49700 | 52100 | 68800 | 81000 |
| 2026-04-29 07:30 | 14.74 | 49200 | 110000 (2013) | 9780 (1986) | 38800 | 10700 | 12500 | 19700 | 22600 | 36000 | 49700 | 52100 | 68800 | 81000 |
| 2026-04-29 07:00 | 14.73 | 49300 | 110000 (2013) | 9780 (1986) | 38800 | 10700 | 12500 | 19700 | 22600 | 36000 | 49700 | 52100 | 68800 | 81000 |
| 2026-04-29 06:30 | 14.73 | 49000 | 110000 (2013) | 9780 (1986) | 38800 | 10700 | 12500 | 19700 | 22600 | 36000 | 49700 | 52100 | 68800 | 81000 |
| 2026-04-29 06:00 | 14.72 | 49100 | 110000 (2013) | 9780 (1986) | 38800 | 10700 | 12500 | 19700 | 22600 | 36000 | 49700 | 52100 | 68800 | 81000 |
| 2026-04-29 05:30 | 14.72 | 49000 | 110000 (2013) | 9780 (1986) | 38800 | 10700 | 12500 | 19700 | 22600 | 36000 | 49700 | 52100 | 68800 | 81000 |
| 2026-04-29 05:00 | 14.72 | 49000 | 110000 (2013) | 9780 (1986) | 38800 | 10700 | 12500 | 19700 | 22600 | 36000 | 49700 | 52100 | 68800 | 81000 |
| 2026-04-29 04:30 | 14.72 | 48800 | 110000 (2013) | 9780 (1986) | 38800 | 10700 | 12500 | 19700 | 22600 | 36000 | 49700 | 52100 | 68800 | 81000 |
| 2026-04-29 04:00 | 14.72 | 48800 | 110000 (2013) | 9780 (1986) | 38800 | 10700 | 12500 | 19700 | 22600 | 36000 | 49700 | 52100 | 68800 | 81000 |
| 2026-04-29 03:30 | 14.72 | 48600 | 110000 (2013) | 9780 (1986) | 38800 | 10700 | 12500 | 19700 | 22600 | 36000 | 49700 | 52100 | 68800 | 81000 |
| 2026-04-29 03:00 | 14.70 | 48900 | 110000 (2013) | 9780 (1986) | 38800 | 10700 | 12500 | 19700 | 22600 | 36000 | 49700 | 52100 | 68800 | 81000 |
| 2026-04-29 02:30 | 14.69 | 49000 | 110000 (2013) | 9780 (1986) | 38800 | 10700 | 12500 | 19700 | 22600 | 36000 | 49700 | 52100 | 68800 | 81000 |
| 2026-04-29 02:00 | 14.70 | 48900 | 110000 (2013) | 9780 (1986) | 38800 | 10700 | 12500 | 19700 | 22600 | 36000 | 49700 | 52100 | 68800 | 81000 |
| 2026-04-29 01:30 | 14.69 | 48700 | 110000 (2013) | 9780 (1986) | 38800 | 10700 | 12500 | 19700 | 22600 | 36000 | 49700 | 52100 | 68800 | 81000 |
| 2026-04-29 01:00 | 14.69 | 48800 | 110000 (2013) | 9780 (1986) | 38800 | 10700 | 12500 | 19700 | 22600 | 36000 | 49700 | 52100 | 68800 | 81000 |
| 2026-04-29 00:30 | 14.69 | 48500 | 110000 (2013) | 9780 (1986) | 38800 | 10700 | 12500 | 19700 | 22600 | 36000 | 49700 | 52100 | 68800 | 81000 |
| 2026-04-29 00:00 | 14.64 | 48800 | 110000 (2013) | 9780 (1986) | 38800 | 10700 | 12500 | 19700 | 22600 | 36000 | 49700 | 52100 | 68800 | 81000 |
| 2026-04-28 23:30 | 14.69 | 48400 | 110000 (2013) | 9780 (1986) | 38800 | 10700 | 12500 | 19700 | 22600 | 36000 | 49700 | 52100 | 68800 | 81000 |
| 2026-04-28 23:00 | 14.67 | 48600 | 110000 (2013) | 9780 (1986) | 38800 | 10700 | 12500 | 19700 | 22600 | 36000 | 49700 | 52100 | 68800 | 81000 |
| 2026-04-28 22:30 | 14.68 | 48300 | 111000 (2013) | 9720 (1956) | 38700 | 10700 | 13200 | 20200 | 23100 | 35600 | 49100 | 52900 | 65000 | 81400 |
| 2026-04-28 22:00 | 14.66 | 48200 | 111000 (2013) | 9720 (1956) | 38700 | 10700 | 13200 | 20200 | 23100 | 35600 | 49100 | 52900 | 65000 | 81400 |
| 2026-04-28 21:30 | 14.67 | 48100 | 111000 (2013) | 9720 (1956) | 38700 | 10700 | 13200 | 20200 | 23100 | 35600 | 49100 | 52900 | 65000 | 81400 |
| 2026-04-28 21:00 | 14.64 | 48300 | 111000 (2013) | 9720 (1956) | 38700 | 10700 | 13200 | 20200 | 23100 | 35600 | 49100 | 52900 | 65000 | 81400 |
| 2026-04-28 20:30 | 14.65 | 48000 | 111000 (2013) | 9720 (1956) | 38700 | 10700 | 13200 | 20200 | 23100 | 35600 | 49100 | 52900 | 65000 | 81400 |
| 2026-04-28 20:00 | 14.66 | 47900 | 111000 (2013) | 9720 (1956) | 38700 | 10700 | 13200 | 20200 | 23100 | 35600 | 49100 | 52900 | 65000 | 81400 |
| 2026-04-28 19:30 | 14.63 | 48100 | 111000 (2013) | 9720 (1956) | 38700 | 10700 | 13200 | 20200 | 23100 | 35600 | 49100 | 52900 | 65000 | 81400 |
| 2026-04-28 19:00 | 14.63 | 48000 | 111000 (2013) | 9720 (1956) | 38700 | 10700 | 13200 | 20200 | 23100 | 35600 | 49100 | 52900 | 65000 | 81400 |
| 2026-04-28 18:30 | 14.50 | 48900 | 111000 (2013) | 9720 (1956) | 38700 | 10700 | 13200 | 20200 | 23100 | 35600 | 49100 | 52900 | 65000 | 81400 |
| 2026-04-28 18:00 | 14.61 | 48200 | 111000 (2013) | 9720 (1956) | 38700 | 10700 | 13200 | 20200 | 23100 | 35600 | 49100 | 52900 | 65000 | 81400 |
| 2026-04-28 17:30 | 14.62 | 47600 | 111000 (2013) | 9720 (1956) | 38700 | 10700 | 13200 | 20200 | 23100 | 35600 | 49100 | 52900 | 65000 | 81400 |
| 2026-04-28 17:00 | 14.61 | 47600 | 111000 (2013) | 9720 (1956) | 38700 | 10700 | 13200 | 20200 | 23100 | 35600 | 49100 | 52900 | 65000 | 81400 |
| 2026-04-28 16:30 | 14.61 | 47400 | 111000 (2013) | 9720 (1956) | 38700 | 10700 | 13200 | 20200 | 23100 | 35600 | 49100 | 52900 | 65000 | 81400 |
| 2026-04-28 16:00 | 14.59 | 47300 | 111000 (2013) | 9720 (1956) | 38700 | 10700 | 13200 | 20200 | 23100 | 35600 | 49100 | 52900 | 65000 | 81400 |
| 2026-04-28 15:30 | 14.58 | 47300 | 111000 (2013) | 9720 (1956) | 38700 | 10700 | 13200 | 20200 | 23100 | 35600 | 49100 | 52900 | 65000 | 81400 |
| 2026-04-28 15:00 | 14.58 | 47100 | 111000 (2013) | 9720 (1956) | 38700 | 10700 | 13200 | 20200 | 23100 | 35600 | 49100 | 52900 | 65000 | 81400 |
| 2026-04-28 14:30 | 14.57 | 46900 | 111000 (2013) | 9720 (1956) | 38700 | 10700 | 13200 | 20200 | 23100 | 35600 | 49100 | 52900 | 65000 | 81400 |
| 2026-04-28 14:00 | 14.58 | 46800 | 111000 (2013) | 9720 (1956) | 38700 | 10700 | 13200 | 20200 | 23100 | 35600 | 49100 | 52900 | 65000 | 81400 |
| 2026-04-28 13:30 | 14.56 | 46900 | 111000 (2013) | 9720 (1956) | 38700 | 10700 | 13200 | 20200 | 23100 | 35600 | 49100 | 52900 | 65000 | 81400 |
| 2026-04-28 13:00 | 14.53 | 47100 | 111000 (2013) | 9720 (1956) | 38700 | 10700 | 13200 | 20200 | 23100 | 35600 | 49100 | 52900 | 65000 | 81400 |
| 2026-04-28 12:30 | 14.53 | 46800 | 111000 (2013) | 9720 (1956) | 38700 | 10700 | 13200 | 20200 | 23100 | 35600 | 49100 | 52900 | 65000 | 81400 |
| 2026-04-28 12:00 | 14.51 | 46900 | 111000 (2013) | 9720 (1956) | 38700 | 10700 | 13200 | 20200 | 23100 | 35600 | 49100 | 52900 | 65000 | 81400 |
| 2026-04-28 11:30 | 14.50 | 47000 | 111000 (2013) | 9720 (1956) | 38700 | 10700 | 13200 | 20200 | 23100 | 35600 | 49100 | 52900 | 65000 | 81400 |
| 2026-04-28 11:00 | 14.50 | 46300 | 111000 (2013) | 9720 (1956) | 38700 | 10700 | 13200 | 20200 | 23100 | 35600 | 49100 | 52900 | 65000 | 81400 |
| 2026-04-28 10:30 | 14.49 | 46200 | 111000 (2013) | 9720 (1956) | 38700 | 10700 | 13200 | 20200 | 23100 | 35600 | 49100 | 52900 | 65000 | 81400 |
| 2026-04-28 10:00 | 14.47 | 46100 | 111000 (2013) | 9720 (1956) | 38700 | 10700 | 13200 | 20200 | 23100 | 35600 | 49100 | 52900 | 65000 | 81400 |
| 2026-04-28 09:30 | 14.47 | 46200 | 111000 (2013) | 9720 (1956) | 38700 | 10700 | 13200 | 20200 | 23100 | 35600 | 49100 | 52900 | 65000 | 81400 |
| 2026-04-28 09:00 | 14.44 | 46300 | 111000 (2013) | 9720 (1956) | 38700 | 10700 | 13200 | 20200 | 23100 | 35600 | 49100 | 52900 | 65000 | 81400 |
| 2026-04-28 08:30 | 14.42 | 46300 | 111000 (2013) | 9720 (1956) | 38700 | 10700 | 13200 | 20200 | 23100 | 35600 | 49100 | 52900 | 65000 | 81400 |
| 2026-04-28 08:00 | 14.41 | 46000 | 111000 (2013) | 9720 (1956) | 38700 | 10700 | 13200 | 20200 | 23100 | 35600 | 49100 | 52900 | 65000 | 81400 |
| 2026-04-28 07:30 | 14.41 | 46000 | 111000 (2013) | 9720 (1956) | 38700 | 10700 | 13200 | 20200 | 23100 | 35600 | 49100 | 52900 | 65000 | 81400 |
| 2026-04-28 07:00 | 14.31 | 46900 | 111000 (2013) | 9720 (1956) | 38700 | 10700 | 13200 | 20200 | 23100 | 35600 | 49100 | 52900 | 65000 | 81400 |
| 2026-04-28 06:30 | 14.39 | 45700 | 111000 (2013) | 9720 (1956) | 38700 | 10700 | 13200 | 20200 | 23100 | 35600 | 49100 | 52900 | 65000 | 81400 |
| 2026-04-28 06:00 | 14.38 | 45900 | 111000 (2013) | 9720 (1956) | 38700 | 10700 | 13200 | 20200 | 23100 | 35600 | 49100 | 52900 | 65000 | 81400 |
| 2026-04-28 05:30 | 14.33 | 46300 | 111000 (2013) | 9720 (1956) | 38700 | 10700 | 13200 | 20200 | 23100 | 35600 | 49100 | 52900 | 65000 | 81400 |
| 2026-04-28 05:00 | 14.37 | 45700 | 111000 (2013) | 9720 (1956) | 38700 | 10700 | 13200 | 20200 | 23100 | 35600 | 49100 | 52900 | 65000 | 81400 |
| 2026-04-28 04:30 | 14.36 | 45500 | 111000 (2013) | 9720 (1956) | 38700 | 10700 | 13200 | 20200 | 23100 | 35600 | 49100 | 52900 | 65000 | 81400 |
| 2026-04-28 04:00 | 14.37 | 45200 | 111000 (2013) | 9720 (1956) | 38700 | 10700 | 13200 | 20200 | 23100 | 35600 | 49100 | 52900 | 65000 | 81400 |
| 2026-04-28 03:30 | 14.38 | 44600 | 111000 (2013) | 9720 (1956) | 38700 | 10700 | 13200 | 20200 | 23100 | 35600 | 49100 | 52900 | 65000 | 81400 |
| 2026-04-28 03:00 | 14.37 | 44600 | 111000 (2013) | 9720 (1956) | 38700 | 10700 | 13200 | 20200 | 23100 | 35600 | 49100 | 52900 | 65000 | 81400 |
| 2026-04-28 02:30 | 14.39 | 44300 | 111000 (2013) | 9720 (1956) | 38700 | 10700 | 13200 | 20200 | 23100 | 35600 | 49100 | 52900 | 65000 | 81400 |
| 2026-04-28 02:00 | 14.39 | 44000 | 111000 (2013) | 9720 (1956) | 38700 | 10700 | 13200 | 20200 | 23100 | 35600 | 49100 | 52900 | 65000 | 81400 |
| 2026-04-28 01:30 | 14.36 | 44200 | 111000 (2013) | 9720 (1956) | 38700 | 10700 | 13200 | 20200 | 23100 | 35600 | 49100 | 52900 | 65000 | 81400 |
| 2026-04-28 01:00 | 14.36 | 43700 | 111000 (2013) | 9720 (1956) | 38700 | 10700 | 13200 | 20200 | 23100 | 35600 | 49100 | 52900 | 65000 | 81400 |
| 2026-04-28 00:30 | 14.39 | 43200 | 111000 (2013) | 9720 (1956) | 38700 | 10700 | 13200 | 20200 | 23100 | 35600 | 49100 | 52900 | 65000 | 81400 |
| 2026-04-28 00:00 | 14.36 | 43200 | 111000 (2013) | 9720 (1956) | 38700 | 10700 | 13200 | 20200 | 23100 | 35600 | 49100 | 52900 | 65000 | 81400 |
| 2026-04-27 23:30 | 14.33 | 43100 | 111000 (2013) | 9720 (1956) | 38700 | 10700 | 13200 | 20200 | 23100 | 35600 | 49100 | 52900 | 65000 | 81400 |
| 2026-04-27 23:00 | 14.29 | 43100 | 111000 (2013) | 9720 (1956) | 38700 | 10700 | 13200 | 20200 | 23100 | 35600 | 49100 | 52900 | 65000 | 81400 |
A total of 355 rows are displayed for years 1939 through 2024.